This is the latest recevied weather packets stored in our database for station/object OH6GKW. If no packets are shown the sender has not sent any weather packets the latest 10 day(s).
| Time | Temp. | Humidity | Pressure | Rain* | Wind** | Luminosity | Snow |
|---|---|---|---|---|---|---|---|
| 1778131721 | 4.44° C | 76% | 1012.8 hPa | 0 mm | - | 178 W/m² | - |
| 1778131426 | 4.44° C | 76% | 1012.8 hPa | 0 mm | - | 185 W/m² | - |
| 1778131122 | 3.89° C | 77% | 1012.8 hPa | 0 mm | - | 185 W/m² | - |
| 1778130814 | 3.89° C | 76% | 1012.7 hPa | 0 mm | - | 190 W/m² | - |
| 1778130525 | 3.89° C | 76% | 1012.7 hPa | 0 mm | - | 179 W/m² | - |
| 1778130220 | 3.89° C | 76% | 1012.7 hPa | 0 mm | - | 160 W/m² | - |
| 1778129910 | 3.89° C | 76% | 1012.8 hPa | 0 mm | - | 150 W/m² | - |
| 1778129619 | 3.89° C | 76% | 1012.8 hPa | 0 mm | - | 160 W/m² | - |
| 1778129312 | 3.33° C | 76% | 1012.8 hPa | 0 mm | - | 167 W/m² | - |
| 1778129039 | 3.33° C | 76% | 1012.7 hPa | 0 mm | - | 153 W/m² | - |
| 1778128732 | 3.33° C | 76% | 1012.7 hPa | 0 mm | - | 171 W/m² | - |
| 1778128431 | 2.78° C | 77% | 1012.7 hPa | 0 mm | - | 199 W/m² | - |
| 1778128121 | 2.78° C | 78% | 1012.6 hPa | 0 mm | - | 99 W/m² | - |
| 1778127822 | 2.22° C | 78% | 1012.6 hPa | 0 mm | - | 69 W/m² | - |
| 1778127514 | 2.22° C | 79% | 1012.6 hPa | 0 mm | - | 69 W/m² | - |
| 1778127227 | 1.67° C | 81% | 1012.6 hPa | 0 mm | - | 53 W/m² | - |
| 1778126920 | 1.67° C | 82% | 1012.6 hPa | 0 mm | - | 44 W/m² | - |
| 1778126614 | 1.11° C | 83% | 1012.6 hPa | 0 mm | - | 35 W/m² | - |
| 1778126324 | 1.11° C | 84% | 1012.5 hPa | 0 mm | - | 30 W/m² | - |
| 1778126018 | 0.56° C | 85% | 1012.5 hPa | 0 mm | - | 28 W/m² | - |
| 1778125710 | 0.56° C | 86% | 1012.5 hPa | 0 mm | - | 25 W/m² | - |
| 1778125411 | 0° C | 87% | 1012.5 hPa | 0 mm | - | 25 W/m² | - |
| 1778125134 | 0° C | 87% | 1012.5 hPa | 0 mm | - | 21 W/m² | - |
| 1778124829 | -0.56° C | 87% | 1012.5 hPa | 0 mm | - | 21 W/m² | - |
| 1778124520 | -0.56° C | 88% | 1012.2 hPa | 0 mm | - | 21 W/m² | - |
* Rain since midnight (hover to see other rain measurements)
** Current wind speed in m/s (hover to see current wind gust speed)